This is the latest recevied weather packets stored in our database for station/object KA1JKB. If no packets are shown the sender has not sent any weather packets the latest 10 day(s).
| Time | Temp. | Humidity | Pressure | Rain* | Wind** | Luminosity | Snow |
|---|---|---|---|---|---|---|---|
| 1788005210 | 13.33° C | 99% | 1020.2 hPa | 0 mm | - | 56 W/m² | - |
| 1788004909 | 13.33° C | 99% | 1019.9 hPa | 0 mm | - | 52 W/m² | - |
| 1788004609 | 13.33° C | 99% | 1019.9 hPa | 0 mm | - | 48 W/m² | - |
| 1788004309 | 13.33° C | 99% | 1020.1 hPa | 0 mm | - | 42 W/m² | - |
| 1788004008 | 12.78° C | 99% | 1019.9 hPa | 0 mm | - | 40 W/m² | - |
| 1788003707 | 12.78° C | 99% | 1019.8 hPa | 0 mm | - | 37 W/m² | - |
| 1788003403 | 11.67° C | 99% | 1019.8 hPa | 0 mm | - | 44 W/m² | - |
| 1788003103 | 10.56° C | 99% | 1020.1 hPa | 0 mm | - | 43 W/m² | - |
| 1788002802 | 10° C | 99% | 1020 hPa | 0 mm | - | 36 W/m² | - |
| 1788002498 | 9.44° C | 99% | 1019.8 hPa | 0 mm | - | 27 W/m² | - |
| 1788002193 | 9.44° C | 99% | 1019.8 hPa | 0 mm | - | 20 W/m² | - |
| 1788001893 | 9.44° C | 99% | 1019.9 hPa | 0 mm | - | 12 W/m² | - |
| 1788001589 | 8.89° C | 99% | 1019.9 hPa | 0 mm | - | 8 W/m² | - |
| 1788001283 | 8.89° C | 99% | 1019.8 hPa | 0 mm | - | 3 W/m² | - |
| 1788000983 | 8.89° C | 99% | 1019.8 hPa | 0 mm | - | 1 W/m² | - |
| 1788000679 | 9.44° C | 99% | 1019.7 hPa | 0 mm | - | 0 W/m² | - |
| 1788000374 | 10° C | 99% | 1019.7 hPa | 0 mm | - | 0 W/m² | - |
| 1788000074 | 8.89° C | 99% | 1019.6 hPa | 0 mm | - | 0 W/m² | - |
| 1787999770 | 8.89° C | 99% | 1019.6 hPa | 0 mm | - | 0 W/m² | - |
| 1787999467 | 8.89° C | 99% | 1019.6 hPa | 0 mm | - | 0 W/m² | - |
| 1787999162 | 8.89° C | 99% | 1019.6 hPa | 0 mm | - | 0 W/m² | - |
| 1787998856 | 8.89° C | 99% | 1019.6 hPa | 0 mm | - | 0 W/m² | - |
| 1787998555 | 8.89° C | 99% | 1019.6 hPa | 0 mm | - | 0 W/m² | - |
| 1787998249 | 8.89° C | 99% | 1019.4 hPa | 0 mm | - | 0 W/m² | - |
| 1787997945 | 8.89° C | 99% | 1019.6 hPa | 0 mm | - | 0 W/m² | - |
* Rain latest hour (hover to see other rain measurements)
** Current wind speed in m/s (hover to see current wind gust speed)